Weather History for Cheyenne, WY

Change the Weather History Date:

Saturday, November 16, 2013

  Actual Average Record
Temperature  
Mean Temperature 42 °F 35 °F  
Max Temperature 53 °F 46 °F 70 °F (1999)
Min Temperature 31 °F 24 °F -20 °F (1875)
Degree Days  
Heating Degree Days 23 30  
Month to date heating degree days 397 427  
Since 1 July heating degree days 1255 1286  
Cooling Degree Days 0 0  
Month to date cooling degree days 0 0  
Year to date cooling degree days 520 348  
Moisture  
Dew Point 20 °F    
Average Humidity 43    
Maximum Humidity 64    
Minimum Humidity 22    
Precipitation  
Precipitation 0.00 in 0.02 in 0.22 in (1926)
Month to date precipitation 0.03 0.32  
Year to date precipitation 17.55 15.18  
Snow  
Snow 0.00 in 0.20 in 2.50 in (1958)
Month to date snowfall 0.2 3.9  
Since 1 July snowfall 12.7 10.2  
Snow Depth 0.00 in    
Sea Level Pressure  
Sea Level Pressure 29.36 in    
Wind  
Wind Speed 20 mph (West)    
Max Wind Speed 40 mph    
Max Gust Speed 55 mph    
Visibility 10 miles    
Events      
T = Trace of Precipitation, MM = Missing Value Source: NWS Daily Summary

Daily Weather History Graph

Daily Weather History Graph

Search for Another Location

Airport:

Trip Planner

Search our weather history database for the weather conditions in past years. The results will help you decide how hot, cold, wet, or windy it might be!

Date:

Astronomy

Nov. 16, 2013 Rise Set
Actual Time 6:48 AM MST 4:39 PM MST
Civil Twilight 6:18 AM MST 5:08 PM MST
Nautical Twilight 5:45 AM MST 5:42 PM MST
Astronomical Twilight 5:12 AM MST 6:14 PM MST
Moon 4:16 PM MST (11/16) 5:46 AM MST (11/16)
Length of Visible Light 10h 49m
Length of Day
9h 50m
Waxing Gibbous, 99% of the Moon is Illuminated
Nov 16
Waxing Gibbous
Nov 17
Full
Nov 25
Last Quarter
Dec 2
New
Dec 9
First Quarter

Hourly Weather History & Observations

Time (MST) Temp. Windchill Dew Point Humidity Pressure Visibility Wind Dir Wind Speed Gust Speed Precip Events Conditions
12:53 AM 35.1 °F - 23.0 °F 61% 29.35 in 10.0 mi North - - N/A   Clear
1:53 AM 33.1 °F 23.4 °F 23.0 °F 66% 29.34 in 10.0 mi WSW 13.8 mph - N/A   Clear
2:53 AM 34.0 °F 24.2 °F 23.0 °F 64% 29.33 in 10.0 mi West 15.0 mph - N/A   Clear
3:53 AM 33.1 °F 25.5 °F 21.9 °F 64% 29.35 in 10.0 mi SW 9.2 mph - N/A   Clear
4:53 AM 36.0 °F 24.7 °F 19.9 °F 52% 29.33 in 10.0 mi West 21.9 mph 32.2 mph N/A   Clear
5:53 AM 36.0 °F 23.0 °F 19.0 °F 50% 29.32 in 10.0 mi West 29.9 mph 41.4 mph N/A   Clear
6:53 AM 36.0 °F 22.4 °F 19.9 °F 52% 29.31 in 10.0 mi West 33.4 mph 41.4 mph N/A   Clear
7:53 AM 37.0 °F 27.0 °F 19.0 °F 48% 29.37 in 10.0 mi WNW 18.4 mph - N/A   Clear
8:53 AM 39.0 °F 32.3 °F 17.1 °F 41% 29.36 in 10.0 mi West 10.4 mph - N/A   Clear
9:53 AM 44.1 °F 37.1 °F 15.1 °F 31% 29.32 in 10.0 mi SW 15.0 mph 20.7 mph N/A   Clear
10:53 AM 48.0 °F - 14.0 °F 26% 29.30 in 10.0 mi WSW 20.7 mph 32.2 mph N/A   Clear
11:53 AM 52.0 °F - 14.0 °F 22% 29.26 in 10.0 mi WSW 27.6 mph 42.6 mph N/A   Partly Cloudy
12:53 PM 48.9 °F - 19.9 °F 32% 29.28 in 10.0 mi WNW 21.9 mph 27.6 mph N/A   Overcast
1:53 PM 46.9 °F - 18.0 °F 32% 29.31 in 10.0 mi West 31.1 mph 55.2 mph N/A   Overcast
2:53 PM 45.0 °F 35.6 °F 23.0 °F 42% 29.31 in 10.0 mi West 27.6 mph 39.1 mph N/A   Mostly Cloudy
3:53 PM 41.0 °F 31.9 °F 25.0 °F 53% 29.38 in 10.0 mi West 19.6 mph 31.1 mph N/A   Partly Cloudy
4:53 PM 39.9 °F 32.9 °F 24.1 °F 53% 29.40 in 10.0 mi WNW 11.5 mph - N/A   Overcast
5:53 PM 37.9 °F 29.2 °F 21.9 °F 53% 29.43 in 10.0 mi West 15.0 mph 25.3 mph N/A   Partly Cloudy
6:53 PM 36.0 °F 25.6 °F 18.0 °F 48% 29.42 in 10.0 mi WNW 18.4 mph 27.6 mph N/A   Clear
7:53 PM 35.1 °F 26.4 °F 19.0 °F 52% 29.43 in 10.0 mi WSW 12.7 mph 21.9 mph N/A   Clear
8:53 PM 32.0 °F 23.0 °F 21.0 °F 64% 29.46 in 10.0 mi WSW 11.5 mph - N/A   Clear
9:53 PM 35.1 °F 22.0 °F 21.0 °F 57% 29.44 in 10.0 mi West 28.8 mph 34.5 mph N/A   Clear
10:53 PM 33.1 °F 21.9 °F 21.0 °F 61% 29.44 in 10.0 mi West 18.4 mph 26.5 mph N/A   Partly Cloudy
11:53 PM 34.0 °F 21.8 °F 17.1 °F 50% 29.44 in 10.0 mi West 23.0 mph 36.8 mph N/A   Clear